Home   Weather   Amstetten   Past weeks

Flag for Austria Past Weather in Amstetten, Lower Austria, Austria — Yesterday and Last 2 Weeks

Now
49 °F

Overcast.


Feels Like: N/A
Forecast: 39 / 47 °F
Wind: N/A

Location: Linz / Hoersching-Flughafen

Current Time: Apr 26, 2017 at 2:39:10 am

Latest Report: Apr 26, 2017 at 2:00 am


Visibility: 25 mi

Pressure: 29.73 "Hg

Humidity: 75%

Dew Point: 41 °F

Location of AmstettenLocation

Past Weather in Amstetten — Graph

°F

Amstetten Temperature Yesterday

Maximum temperature yesterday: 64 °F (at 3:00 pm)
Minimum temperature yesterday: 35 °F (at 6:00 am)
Average temperature yesterday: 50 °F

High & Low Weather Summary for the Past Weeks

 TemperatureHumidityPressure
High64 °F (Apr 25, 3:00 pm)96% (Apr 18, 11:00 pm)30.56 "Hg (Apr 18, 11:00 pm)
Low30 °F (Apr 20, 5:00 am)39% (Apr 24, 4:00 pm)29.70 "Hg (Apr 25, 5:00 pm)
Average46 °F69%30.12 "Hg
* Reported Apr 11 1:00 am — Apr 26 1:00 am, Amstetten, Weather by CustomWeather, © 2017

Note: Actual official high and low records may vary slightly from our data, if they occured in-between our weather recording intervals... More about our weather records

Advertising

Amstetten Weather History for the Previous 24 Hours

Scroll right to see more
 ConditionsComfort  
Time TempWeatherWind HumidityBarometerVisibility
1:00 am
Wed, Apr 26
50 °FOvercast.6 mph75%29.74 "Hg18 mi
12:00 am51 °FOvercast.N/A88%29.75 "Hg10 mi
11:00 pm
Tue, Apr 25
51 °FOvercast.N/A89%29.75 "Hg9 mi
10:00 pm52 °FOvercast.N/A88%29.75 "Hg9 mi
9:00 pm52 °FOvercast.N/A89%29.75 "Hg9 mi
8:00 pm53 °FOvercast.N/A85%29.73 "Hg11 mi
7:00 pm53 °FOvercast.5 mph81%29.74 "Hg17 mi
6:00 pm60 °FOvercast.7 mph52%29.70 "Hg31 mi
5:00 pm61 °FOvercast.8 mph54%29.70 "Hg28 mi
4:00 pm63 °FPartly sunny.6 mph51%29.71 "Hg22 mi
3:00 pm64 °FPartly sunny.6 mph51%29.72 "Hg16 mi
2:00 pm63 °FPartly sunny.7 mph54%29.75 "Hg25 mi
1:00 pm63 °FPartly sunny.8 mph53%29.75 "Hg16 mi
12:00 pm60 °FScattered clouds.3 mph58%29.77 "Hg19 mi
11:00 am55 °FPartly sunny.N/A59%29.78 "Hg12 mi
10:00 am52 °FPartly sunny.N/A69%29.78 "Hg11 mi
9:00 am47 °FPartly sunny.N/A75%29.79 "Hg12 mi
8:00 am41 °FScattered clouds.N/A84%29.80 "Hg7 mi
7:00 am36 °FPassing clouds.N/A88%29.80 "Hg8 mi
6:00 am35 °FPassing clouds.N/A93%29.80 "Hg4 mi
5:00 am37 °FPassing clouds.N/A88%29.82 "Hg9 mi
4:00 am38 °FPassing clouds.N/A90%29.83 "Hg11 mi
3:00 am39 °FPassing clouds.N/A82%29.84 "Hg13 mi
2:00 am41 °FPassing clouds.N/A82%29.86 "Hg13 mi
Weather by CustomWeather, © 2017

See weather overviewHow to use our weather pages